Satellite: RS-40
Catalog number: 38736
Epoch time:      12235.56880548
Element set:    0029
Inclination:      082.4819 deg
RA of node:       341.3085 deg
Eccentricity:    0.0017679
Arg of perigee:   258.4196 deg
Mean anomaly:     101.4898 deg
Mean motion:   12.42645990 rev/day
Decay rate:        1.0e-07 rev/day^2
Epoch rev:           00315
Checksum:              314

/EX


_______________________________________________
Via the Keps mailing list courtesy of AMSAT-NA
http://amsat.org/mailman/listinfo/keps

--- ViaMAIL!/WC v1.60d
 * Origin: Chowdanet (401-724-4410) telnet://chowdanet.com  (1:323/120)